Location: Eitze
(52.9840°N, 9.6894°E)
Time: 01:08:43
(UTC+00:00)

CENTAUR R/B - Pass Details

Date: 19 May 2025
Orbit: 644 x 1537 km, 63.4° (Epoch: 23 June)

Event Time Altitude Azimuth Distance (km) Brightness Sun altitude
Rises 23:12:31 0° 313° (NW) 4,079 6.4 -17.0°
Reaches altitude 10° 23:15:05 10° 312° (NW) 3,226 5.8 -17.0°
Maximum altitude 23:23:07 76° 229° (SW) 1,458 3.2 -17.0°
Enters shadow 23:31:32 13° 147° (SSE) 3,412 4.9 -17.0°
